Simultaneous Nadir Overpasses (SNOs) Predictions

Prediction of SNOs between NOAA-19 and TERRA Satellite Orbit:

Table of predicted SNOs for the next 14.0 days since TLE Epoch: 6/18/2021
Index Date (NOAA-19) Time (NOAA-19) Lat,Lon (NOAA-19) SZA (NOAA-19 ) Date (TERRA) Time (TERRA) Lat,Lon (TERRA) SZA (TERRA ) Distance(km) Time Diff (sec)
1 06/20/2021 02:50:00 80.27, 171.10 58.51 06/20/2021 02:50:09 80.29, 171.04 58.52 2.22 9
2 06/22/2021 08:23:07 -80.30, -92.46 121.51 06/22/2021 08:23:52 -80.27, -92.54 121.52 2.77 45
3 06/22/2021 09:14:09 80.27, 75.20 58.51 06/22/2021 09:13:18 80.27, 75.10 58.48 1.86 51
4 06/24/2021 13:56:20 80.32, 3.99 58.51 06/24/2021 13:57:33 80.29, 4.16 58.53 4.41 73
5 06/24/2021 14:47:16 -80.28, 171.79 121.47 06/24/2021 14:47:00 -80.29, 171.82 121.47 1.08 16
6 06/26/2021 20:20:28 80.30, -91.65 58.59 06/26/2021 20:20:41 80.30, -91.51 58.61 2.57 13
7 06/26/2021 21:11:18 -80.13, 78.28 121.28 06/26/2021 21:10:10 -80.24, 75.56 121.50 53.07 68
8 06/29/2021 01:53:36 -80.31, 4.95 121.32 06/29/2021 01:54:24 -80.29, 4.90 121.33 2.74 48
9 06/29/2021 02:44:37 80.30, 172.36 58.69 06/29/2021 02:43:50 80.28, 172.49 58.67 3.39 47



Historial Predications of SNOs between NOAA-19 and TERRA
